K9MWM-1 Weather Reports


Display with metric or nautical units.
time (UTC)temp
F
wind
direction
speed
MPH
gust
MPH
rain 1hr
in
rain 24hr
in
rain mn
in
humidity
%
barometer
mb
20260510020522 62 60 0.0 0.0 0.00 0.00 0.00
20260510020009 63 112 0.0 0.0 0.00 0.00 0.00
20260510015456 64 348 0.0 0.0 0.00 0.00 0.00
20260510014943 65 337 0.0 0.0 0.00 0.00 0.00
20260510014430 67 337 0.0 0.0 0.00 0.00 0.00
20260510013917 67 1 0.0 0.0 0.00 0.00 0.00
20260510013405 68 334 0.0 0.0 0.00 0.00 0.00
20260510012852 69 112 0.0 0.0 0.00 0.00 0.00
20260510012339 70 342 0.0 0.0 0.00 0.00 0.00
20260510011826 69 319 0.0 2.0 0.00 0.00 0.00
20260510011313 69 331 0.0 0.0 0.00 0.00 0.00
20260510010801 68 333 0.0 3.0 0.00 0.00 0.00
20260510010248 68 323 0.0 5.0 0.00 0.00 0.00
20260510005222 68 343 0.0 0.0 0.00 0.00 0.00
20260510004709 69 337 0.0 0.0 0.00 0.00 0.00
20260510004156 69 349 0.0 0.0 0.00 0.00 0.00
20260510003130 70 349 0.0 0.0 0.00 0.00 0.00
20260510002618 70 322 0.0 4.0 0.00 0.00 0.00
20260510002105 71 320 0.0 4.0 0.00 0.00 0.00
20260510001552 72 323 0.0 5.0 0.00 0.00 0.00
20260510001039 73 317 0.0 5.0 0.00 0.00 0.00
20260510000526 74 322 0.0 5.0 0.00 0.00 0.00
20260510000014 74 342 0.0 3.0 0.00 0.00 0.00
20260509235500 74 324 2.0 4.0 0.00 0.00 0.00
20260509234948 74 329 0.0 5.0 0.00 0.00 0.00
20260509234435 75 341 0.0 6.0 0.00 0.00 0.00
20260509233922 75 327 0.0 0.0 0.00 0.00 0.00
20260509233409 75 315 0.0 0.0 0.00 0.00 0.00
20260509232856 75 327 0.0 0.0 0.00 0.00 0.00
20260509232344 75 326 0.0 0.0 0.00 0.00 0.00
20260509231831 75 311 0.0 11.0 0.00 0.00 0.00
20260509231318 76 324 0.0 1.0 0.00 0.00 0.00
20260509230805 76 325 0.0 5.0 0.00 0.00 0.00
20260509230252 76 320 0.0 6.0 0.00 0.00 0.00
20260509225740 76 315 0.0 7.0 0.00 0.00 0.00
20260509225226 76 316 0.0 4.0 0.00 0.00 0.00
20260509224714 76 311 1.0 4.0 0.00 0.00 0.00
20260509224201 76 328 0.0 0.0 0.00 0.00 0.00
20260509223648 76 318 0.0 5.0 0.00 0.00 0.00
20260509223135 77 339 1.0 2.0 0.00 0.00 0.00
20260509222622 76 235 0.0 0.0 0.00 0.00 0.00
20260509222110 76 315 0.0 0.0 0.00 0.00 0.00
20260509221557 76 187 0.0 0.0 0.00 0.00 0.00
20260509221044 76 331 0.0 0.0 0.00 0.00 0.00
20260509220531 76 350 0.0 4.0 0.00 0.00 0.00
20260509220018 76 309 0.0 0.0 0.00 0.00 0.00
20260509215506 76 334 0.0 1.0 0.00 0.00 0.00
20260509214952 77 327 0.0 1.0 0.00 0.00 0.00
20260509214440 77 142 0.0 0.0 0.00 0.00 0.00
20260509213927 77 332 0.0 1.0 0.00 0.00 0.00
20260509213414 77 350 0.0 0.0 0.00 0.00 0.00
20260509212901 77 324 0.0 0.0 0.00 0.00 0.00
20260509212348 78 328 0.0 4.0 0.00 0.00 0.00
20260509211836 79 297 3.0 8.0 0.00 0.00 0.00
20260509211323 79 316 0.0 9.0 0.00 0.00 0.00
20260509210257 80 315 0.0 2.0 0.00 0.00 0.00
20260509205744 80 326 0.0 7.0 0.00 0.00 0.00
20260509205231 80 318 0.0 8.0 0.00 0.00 0.00
20260509204718 79 3 0.0 4.0 0.00 0.00 0.00
20260509204205 78 310 0.0 6.0 0.00 0.00 0.00
20260509203653 78 319 1.0 3.0 0.00 0.00 0.00
20260509203140 77 321 0.0 16.0 0.00 0.00 0.00
20260509202115 76 347 0.0 8.0 0.00 0.00 0.00
20260509201601 77 319 4.0 10.0 0.00 0.00 0.00
20260509201049 77 330 0.0 5.0 0.00 0.00 0.00
20260509200536 77 325 0.0 1.0 0.00 0.00 0.00
20260509200023 77 327 1.0 5.0 0.00 0.00 0.00
20260509195510 76 322 0.0 7.0 0.00 0.00 0.00
20260509194957 76 316 0.0 9.0 0.00 0.00 0.00
20260509194444 76 323 3.0 15.0 0.00 0.00 0.00
20260509193931 76 325 2.0 5.0 0.00 0.00 0.00
20260509193419 76 316 1.0 7.0 0.00 0.00 0.00
20260509192906 76 303 1.0 13.0 0.00 0.00 0.00
20260509192353 76 348 3.0 4.0 0.00 0.00 0.00
20260509191840 76 316 1.0 6.0 0.00 0.00 0.00
20260509190816 76 321 1.0 5.0 0.00 0.00 0.00
20260509190302 75 319 0.0 6.0 0.00 0.00 0.00
20260509183657 75 340 0.0 7.0 0.00 0.00 0.00
20260509183144 76 317 1.0 8.0 0.00 0.00 0.00
20260509182119 76 328 3.0 5.0 0.00 0.00 0.00
20260509181606 75 328 0.0 3.0 0.00 0.00 0.00
20260509181053 75 326 5.0 8.0 0.00 0.00 0.00
20260509180540 75 323 0.0 0.0 0.00 0.00 0.00
20260509180028 75 330 1.0 5.0 0.00 0.00 0.00
20260509175515 75 328 0.0 6.0 0.00 0.00 0.00
20260509175002 76 299 0.0 3.0 0.00 0.00 0.00
20260509174449 76 292 0.0 4.0 0.00 0.00 0.00
20260509173936 76 323 0.0 6.0 0.00 0.00 0.00
20260509173423 76 327 0.0 6.0 0.00 0.00 0.00
20260509172910 76 320 0.0 9.0 0.00 0.00 0.00
20260509172357 76 329 0.0 6.0 0.00 0.00 0.00
20260509171845 76 316 2.0 6.0 0.00 0.00 0.00
20260509171332 76 315 2.0 6.0 0.00 0.00 0.00
20260509170819 76 320 1.0 4.0 0.00 0.00 0.00
20260509170306 76 325 0.0 1.0 0.00 0.00 0.00
20260509165753 76 324 0.0 6.0 0.00 0.00 0.00
20260509165241 76 335 0.0 3.0 0.00 0.00 0.00
20260509164728 76 321 0.0 2.0 0.00 0.00 0.00
20260509164215 76 11 0.0 0.0 0.00 0.00 0.00
20260509163702 76 337 0.0 0.0 0.00 0.00 0.00
20260509163149 76 326 0.0 0.0 0.00 0.00 0.00
20260509162637 75 247 0.0 0.0 0.00 0.00 0.00
20260509162123 75 342 0.0 0.0 0.00 0.00 0.00
20260509161610 74 256 0.0 0.0 0.00 0.00 0.00
20260509161058 74 138 0.0 0.0 0.00 0.00 0.00
20260509160545 74 135 0.0 0.0 0.00 0.00 0.00
20260509160032 73 9 0.0 0.0 0.00 0.00 0.00
20260509155519 73 356 0.0 0.0 0.00 0.00 0.00
20260509155006 72 320 0.0 0.0 0.00 0.00 0.00
20260509154454 72 221 0.0 0.0 0.00 0.00 0.00
20260509153941 72 150 0.0 0.0 0.00 0.00 0.00
20260509153428 72 337 0.0 0.0 0.00 0.00 0.00
20260509152915 72 144 0.0 0.0 0.00 0.00 0.00
20260509152402 71 22 0.0 0.0 0.00 0.00 0.00
20260509151849 69 357 0.0 0.0 0.00 0.00 0.00
20260509151336 69 183 0.0 0.0 0.00 0.00 0.00
20260509150823 68 343 0.0 0.0 0.00 0.00 0.00
20260509145758 67 337 0.0 0.0 0.00 0.00 0.00
20260509144732 65 149 0.0 0.0 0.00 0.00 0.00
20260509144219 65 129 0.0 0.0 0.00 0.00 0.00
20260509143707 64 152 0.0 0.0 0.00 0.00 0.00
20260509143153 63 154 0.0 0.0 0.00 0.00 0.00
20260509142641 61 147 0.0 0.0 0.00 0.00 0.00
20260509142128 58 128 0.0 0.0 0.00 0.00 0.00
20260509141615 55 115 0.0 0.0 0.00 0.00 0.00
20260509141102 54 337 0.0 0.0 0.00 0.00 0.00
20260509140549 53 337 0.0 0.0 0.00 0.00 0.00
20260509140037 51 93 0.0 0.0 0.00 0.00 0.00
20260509135524 49 337 0.0 0.0 0.00 0.00 0.00
20260509135011 49 161 0.0 0.0 0.00 0.00 0.00
20260509134458 48 247 0.0 0.0 0.00 0.00 0.00
20260509133945 48 77 0.0 0.0 0.00 0.00 0.00
20260509133432 49 337 0.0 0.0 0.00 0.00 0.00
20260509132919 46 0 0.0 0.0 0.00 0.00 0.00
20260509132406 42 337 0.0 0.0 0.00 0.00 0.00
20260509131854 40 337 0.0 0.0 0.00 0.00 0.00
20260509130828 40 112 0.0 0.0 0.00 0.00 0.00
20260509130315 40 337 0.0 0.0 0.00 0.00 0.00
20260509125802 40 337 0.0 0.0 0.00 0.00 0.00
20260509125250 40 337 0.0 0.0 0.00 0.00 0.00
20260509124737 40 270 0.0 0.0 0.00 0.00 0.00
20260509124224 40 337 0.0 0.0 0.00 0.00 0.00
20260509123711 40 337 0.0 0.0 0.00 0.00 0.00
20260509123158 40 0 0.0 0.0 0.00 0.00 0.00
20260509122645 40 131 0.0 0.0 0.00 0.00 0.00
20260509121619 40 337 0.0 0.0 0.00 0.00 0.00
20260509121107 40 33 0.0 0.0 0.00 0.00 0.00
20260509120554 40 337 0.0 0.0 0.00 0.00 0.00
20260509115528 40 337 0.0 0.0 0.00 0.00 0.00
20260509115015 40 337 0.0 0.0 0.00 0.00 0.00
20260509114503 40 337 0.0 0.0 0.00 0.00 0.00
20260509113950 40 337 0.0 0.0 0.00 0.00 0.00
20260509113437 41 90 0.0 0.0 0.00 0.00 0.00
20260509112924 41 337 0.0 0.0 0.00 0.00 0.00
20260509112411 41 0 0.0 0.0 0.00 0.00 0.00
20260509111858 41 337 0.0 0.0 0.00 0.00 0.00
20260509111345 41 135 0.0 0.0 0.00 0.00 0.00
20260509110832 42 337 0.0 0.0 0.00 0.00 0.00
20260509110320 42 103 0.0 0.0 0.00 0.00 0.00
20260509105807 42 85 0.0 0.0 0.00 0.00 0.00
20260509104741 41 303 0.0 0.0 0.00 0.00 0.00
20260509104228 41 151 0.0 0.0 0.00 0.00 0.00
20260509103716 42 60 0.0 0.0 0.00 0.00 0.00
20260509103203 42 90 0.0 0.0 0.00 0.00 0.00
20260509102650 42 337 0.0 0.0 0.00 0.00 0.00
20260509101624 43 0 0.0 0.0 0.00 0.00 0.00
20260509101111 43 4 0.0 0.0 0.00 0.00 0.00
20260509100558 43 135 0.0 0.0 0.00 0.00 0.00
20260509100046 43 63 0.0 0.0 0.00 0.00 0.00
20260509095533 43 23 0.0 0.0 0.00 0.00 0.00
20260509095020 44 49 0.0 0.0 0.00 0.00 0.00
20260509094507 44 328 0.0 0.0 0.00 0.00 0.00
20260509093954 44 33 0.0 0.0 0.00 0.00 0.00
20260509093441 44 337 0.0 0.0 0.00 0.00 0.00
20260509092929 45 337 0.0 0.0 0.00 0.00 0.00
20260509092416 45 247 0.0 0.0 0.00 0.00 0.00
20260509091903 45 355 0.0 0.0 0.00 0.00 0.00
20260509091350 46 34 0.0 0.0 0.00 0.00 0.00
20260509090837 46 337 0.0 0.0 0.00 0.00 0.00
20260509090324 47 225 0.0 0.0 0.00 0.00 0.00
20260509085811 47 34 0.0 0.0 0.00 0.00 0.00
20260509085259 48 90 0.0 0.0 0.00 0.00 0.00
20260509084746 48 112 0.0 0.0 0.00 0.00 0.00
20260509084233 48 135 0.0 0.0 0.00 0.00 0.00
20260509083720 49 202 0.0 0.0 0.00 0.00 0.00
20260509082654 49 141 0.0 0.0 0.00 0.00 0.00
20260509082142 49 37 0.0 0.0 0.00 0.00 0.00
20260509081118 49 337 0.0 0.0 0.00 0.00 0.00
20260509080603 48 337 0.0 0.0 0.00 0.00 0.00
20260509080050 48 202 0.0 0.0 0.00 0.00 0.00
20260509075537 48 22 0.0 0.0 0.00 0.00 0.00
20260509075024 49 135 0.0 0.0 0.00 0.00 0.00
20260509074512 49 337 0.0 0.0 0.00 0.00 0.00
20260509073959 49 202 0.0 0.0 0.00 0.00 0.00
20260509073446 49 211 0.0 0.0 0.00 0.00 0.00
20260509072933 49 337 0.0 0.0 0.00 0.00 0.00
20260509072420 49 105 0.0 0.0 0.00 0.00 0.00
20260509071907 49 90 0.0 0.0 0.00 0.00 0.00
20260509071354 49 337 0.0 0.0 0.00 0.00 0.00
20260509065816 50 337 0.0 0.0 0.00 0.00 0.00
20260509065306 51 58 0.0 0.0 0.00 0.00 0.00
20260509064750 51 252 0.0 0.0 0.00 0.00 0.00
20260509064237 52 91 0.0 0.0 0.00 0.00 0.00
20260509063725 52 337 0.0 0.0 0.00 0.00 0.00
20260509063212 53 337 0.0 0.0 0.00 0.00 0.00
20260509062659 53 309 0.0 0.0 0.00 0.00 0.00
20260509062146 54 241 0.0 0.0 0.00 0.00 0.00
20260509061633 54 78 0.0 0.0 0.00 0.00 0.00
20260509061120 55 260 0.0 0.0 0.00 0.00 0.00
20260509060607 55 100 0.0 0.0 0.00 0.00 0.00
20260509060055 55 337 0.0 0.0 0.00 0.00 0.00
20260509055542 55 348 0.0 0.0 0.00 0.00 0.00
20260509055029 55 81 0.0 0.0 0.00 0.00 0.00
20260509054516 55 337 0.0 0.0 0.00 0.00 0.00
20260509054003 55 337 0.0 0.0 0.00 0.00 0.00
20260509053451 55 337 0.0 0.0 0.00 0.00 0.00
20260509052938 55 348 0.0 0.0 0.00 0.00 0.00
20260509052425 55 337 0.0 0.0 0.00 0.00 0.00
20260509051912 55 337 0.0 0.0 0.00 0.00 0.00
20260509051359 56 87 0.0 0.0 0.00 0.00 0.00
20260509050846 56 270 0.0 0.0 0.00 0.00 0.00
20260509050333 56 0 0.0 0.0 0.00 0.00 0.00
20260509045821 57 11 0.0 0.0 0.00 0.00 0.00
20260509045308 57 213 0.0 0.0 0.00 0.00 0.00
20260509044755 57 337 0.0 0.0 0.00 0.00 0.00
20260509044242 58 100 0.0 0.0 0.00 0.00 0.00
20260509043729 58 19 0.0 0.0 0.00 0.00 0.00
20260509043216 58 125 0.0 0.0 0.00 0.00 0.00
20260509042704 58 337 0.0 0.0 0.00 0.00 0.00
20260509041639 58 337 0.0 0.0 0.00 0.00 0.00
20260509041125 58 247 0.0 0.0 0.00 0.00 0.00
20260509040612 58 213 0.0 0.0 0.00 0.00 0.00
20260509040059 58 137 0.0 0.0 0.00 0.00 0.00
20260509035546 59 337 0.0 0.0 0.00 0.00 0.00
20260509034521 59 1 0.0 0.0 0.00 0.00 0.00
20260509034008 60 337 0.0 0.0 0.00 0.00 0.00
20260509033455 59 135 0.0 0.0 0.00 0.00 0.00
20260509032430 59 142 0.0 0.0 0.00 0.00 0.00
20260509031917 59 337 0.0 0.0 0.00 0.00 0.00
20260509031404 59 135 0.0 0.0 0.00 0.00 0.00
20260509030851 60 9 0.0 0.0 0.00 0.00 0.00
20260509030338 60 43 0.0 0.0 0.00 0.00 0.00
20260509025825 61 199 0.0 0.0 0.00 0.00 0.00
20260509025312 61 112 0.0 0.0 0.00 0.00 0.00
20260509024800 62 225 0.0 0.0 0.00 0.00 0.00
20260509022709 64 252 0.0 0.0 0.00 0.00 0.00
20260509022156 64 163 0.0 0.0 0.00 0.00 0.00
20260509021643 64 78 0.0 0.0 0.00 0.00 0.00
20260509021130 66 135 0.0 0.0 0.00 0.00 0.00